Weather History for KUVA - August, 2013

Change the Weather History Date:

Saturday, August 17, 2013

  Actual Average (KHDO) Record (KHDO)
Temperature  
Mean Temperature 88 °F -  
Max Temperature 101 °F 93 °F 104 °F (2013)
Min Temperature 75 °F 70 °F 63 °F (2004)
Cooling Degree Days 22    
Growing Degree Days 38 (Base 50)    
Moisture  
Dew Point 60 °F    
Average Humidity 44    
Maximum Humidity 81    
Minimum Humidity 18    
Precipitation  
Precipitation 0.00 in - - ()
Sea Level Pressure  
Sea Level Pressure 29.99 in    
Wind  
Wind Speed 8 mph (ENE)    
Max Wind Speed 16 mph    
Max Gust Speed 23 mph    
Visibility 10 miles    
Events      
Averages and records for this station are not official NWS values.
T = Trace of Precipitation, MM = Missing Value Source: NWS Daily Summary

Daily Weather History Graph

Daily Weather History Graph

Search for Another Location

Airport or City:

Trip Planner

Search our weather history database for the weather conditions in past years. The results will help you decide how hot, cold, wet, or windy it might be!

Date:

Astronomy

Aug. 17, 2013 Rise Set
Actual Time 7:08 AM CDT 8:16 PM CDT
Civil Twilight 6:43 AM CDT 8:41 PM CDT
Nautical Twilight 6:14 AM CDT 9:10 PM CDT
Astronomical Twilight 5:44 AM CDT 9:41 PM CDT
Moon 5:26 PM CDT (8/17) 3:22 AM CDT (8/17)
Length of Visible Light 13h 57m
Length of Day
13h 07m
Waxing Gibbous, 84% of the Moon is Illuminated
Aug 17
Waxing Gibbous
Aug 20
Full
Aug 28
Last Quarter
Sep 5
New
Sep 12
First Quarter

Hourly Weather History & Observations

Time (CDT) Temp. Heat Index Dew Point Humidity Pressure Visibility Wind Dir Wind Speed Gust Speed Precip Events Conditions
12:15 AM 86.9 °F 86.1 °F 58.1 °F 38% 30.00 in 10.0 mi ENE 10.4 mph - N/A   Clear
12:35 AM 85.5 °F 84.8 °F 58.3 °F 40% 30.01 in 10.0 mi ENE 10.4 mph - N/A   Clear
12:55 AM 83.3 °F 82.9 °F 58.3 °F 42% 30.01 in 10.0 mi ENE 9.2 mph - N/A   Clear
1:15 AM 82.4 °F 82.5 °F 58.8 °F 45% 30.01 in 10.0 mi East 10.4 mph - N/A   Clear
1:35 AM 81.9 °F 82.2 °F 59.7 °F 47% 30.02 in 10.0 mi East 10.4 mph - N/A   Clear
1:55 AM 81.7 °F 82.2 °F 60.3 °F 48% 30.02 in 10.0 mi ENE 6.9 mph - N/A   Clear
2:15 AM 81.0 °F 81.6 °F 60.3 °F 49% 30.01 in 10.0 mi ENE 9.2 mph - N/A   Clear
2:35 AM 80.6 °F 81.4 °F 60.4 °F 50% 30.02 in 10.0 mi ENE 6.9 mph - N/A   Clear
2:55 AM 79.2 °F - 60.3 °F 52% 30.02 in 10.0 mi ENE 5.8 mph - N/A   Clear
3:15 AM 79.2 °F - 61.2 °F 54% 30.01 in 10.0 mi ENE 5.8 mph - N/A   Clear
3:35 AM 78.1 °F - 61.2 °F 56% 30.01 in 10.0 mi ENE 5.8 mph - N/A   Clear
3:55 AM 77.9 °F - 62.1 °F 58% 30.01 in 10.0 mi ENE 6.9 mph - N/A   Clear
4:15 AM 77.9 °F - 63.1 °F 60% 30.00 in 10.0 mi ENE 6.9 mph - N/A   Clear
4:35 AM 77.9 °F - 64.6 °F 63% 30.00 in 10.0 mi ENE 5.8 mph - N/A   Clear
4:55 AM 77.9 °F - 65.7 °F 66% 30.00 in 10.0 mi ENE 6.9 mph - N/A   Clear
5:15 AM 77.9 °F - 66.9 °F 69% 30.00 in 10.0 mi ENE 5.8 mph - N/A   Clear
5:35 AM 76.3 °F - 66.4 °F 71% 30.00 in 10.0 mi ENE 5.8 mph - N/A   Clear
5:55 AM 76.1 °F - 67.1 °F 74% 30.00 in 10.0 mi ENE 5.8 mph - N/A   Clear
6:15 AM 75.6 °F - 67.3 °F 75% 30.00 in 10.0 mi ENE 5.8 mph - N/A   Clear
6:35 AM 75.4 °F - 68.0 °F 78% 30.00 in 10.0 mi ENE 5.8 mph - N/A   Clear
6:55 AM 75.4 °F - 68.5 °F 79% 30.01 in 10.0 mi ENE 5.8 mph - N/A   Clear
7:15 AM 75.4 °F - 68.9 °F 80% 30.02 in 10.0 mi ENE 4.6 mph - N/A   Clear
7:35 AM 75.4 °F - 69.1 °F 81% 30.03 in 10.0 mi ENE 6.9 mph - N/A   Clear
7:55 AM 75.4 °F - 68.9 °F 80% 30.03 in 10.0 mi ENE 6.9 mph - N/A   Clear
8:15 AM 76.6 °F - 69.8 °F 79% 30.04 in 10.0 mi ENE 9.2 mph - N/A   Clear
8:35 AM 77.9 °F - 70.9 °F 79% 30.04 in 10.0 mi ENE 10.4 mph - N/A   Clear
8:55 AM 79.2 °F - 71.1 °F 76% 30.05 in 10.0 mi NE 9.2 mph - N/A   Clear
9:15 AM 80.1 °F 83.7 °F 71.6 °F 75% 30.05 in 10.0 mi ENE 8.1 mph - N/A   Clear
9:35 AM 81.0 °F 85.1 °F 71.4 °F 73% 30.05 in 10.0 mi ENE 8.1 mph - N/A   Clear
9:55 AM 82.0 °F 86.5 °F 71.4 °F 70% 30.06 in 10.0 mi ENE 3.5 mph - N/A   Clear
10:15 AM 84.7 °F 91.4 °F 73.0 °F 68% 30.05 in 10.0 mi NE 6.9 mph - N/A   Clear
10:35 AM 88.0 °F 97.0 °F 74.5 °F 64% 30.06 in 10.0 mi East 8.1 mph - N/A   Clear
10:55 AM 88.0 °F 96.0 °F 73.4 °F 62% 30.05 in 10.0 mi NE 5.8 mph - N/A   Clear
11:15 AM 88.0 °F 94.2 °F 71.6 °F 58% 30.06 in 10.0 mi ENE 5.8 mph - N/A   Clear
11:35 AM 88.0 °F 93.4 °F 70.3 °F 56% 30.05 in 10.0 mi Calm Calm - N/A   Clear
11:55 AM 90.3 °F 96.7 °F 70.9 °F 53% 30.05 in 10.0 mi North 3.5 mph - N/A   Clear
12:15 PM 93.2 °F 99.9 °F 71.1 °F 48% 30.04 in 10.0 mi Calm Calm - N/A   Clear
12:35 PM 93.2 °F 97.2 °F 67.8 °F 43% 30.03 in 10.0 mi SE 4.6 mph - N/A   Clear
12:55 PM 93.4 °F 93.5 °F 61.0 °F 34% 30.02 in 10.0 mi Calm Calm - N/A   Clear
1:15 PM 95.5 °F 96.0 °F 61.5 °F 32% 30.01 in 10.0 mi NE 8.1 mph - N/A   Clear
1:35 PM 95.2 °F 95.9 °F 62.2 °F 33% 30.00 in 10.0 mi NNE 3.5 mph - N/A   Clear
1:55 PM 95.5 °F 96.0 °F 61.7 °F 32% 29.99 in 10.0 mi NNE 9.2 mph 17.3 mph N/A   Clear
2:15 PM 95.9 °F 96.1 °F 61.0 °F 31% 29.98 in 10.0 mi ENE 13.8 mph 17.3 mph N/A   Clear
2:35 PM 97.9 °F 98.3 °F 60.6 °F 29% 29.97 in 10.0 mi NNE 6.9 mph - N/A   Clear
2:55 PM 97.9 °F 97.8 °F 59.2 °F 28% 29.96 in 10.0 mi ENE 8.1 mph - N/A   Clear
3:15 PM 96.1 °F 95.2 °F 57.6 °F 28% 29.95 in 10.0 mi ENE 5.8 mph - N/A   Clear
3:35 PM 98.4 °F 96.5 °F 54.1 °F 23% 29.94 in 10.0 mi ENE 11.5 mph 18.4 mph N/A   Clear
3:55 PM 100.9 °F - 50.2 °F 18% 29.93 in 10.0 mi North 10.4 mph 20.7 mph N/A   Clear
4:15 PM 99.9 °F - 49.3 °F 18% 29.93 in 10.0 mi ENE 5.8 mph 20.7 mph N/A   Clear
4:35 PM 100.4 °F - 49.5 °F 18% 29.92 in 10.0 mi East 16.1 mph 23.0 mph N/A   Clear
4:55 PM 100.4 °F - 50.2 °F 18% 29.91 in 10.0 mi East 8.1 mph 11.5 mph N/A   Clear
5:15 PM 100.4 °F - 49.5 °F 18% 29.91 in 10.0 mi ENE 9.2 mph 18.4 mph N/A   Clear
5:35 PM 99.0 °F - 49.6 °F 19% 29.90 in 10.0 mi ENE 10.4 mph - N/A   Clear
5:55 PM 100.4 °F - 49.6 °F 18% 29.90 in 10.0 mi NE 15.0 mph - N/A   Clear
6:15 PM 99.9 °F - 49.1 °F 18% 29.90 in 10.0 mi ENE 10.4 mph - N/A   Clear
6:35 PM 99.1 °F - 48.2 °F 18% 29.90 in 10.0 mi East 10.4 mph - N/A   Clear
6:55 PM 99.0 °F - 48.0 °F 18% 29.90 in 10.0 mi ENE 13.8 mph - N/A   Clear
7:15 PM 98.8 °F - 47.7 °F 18% 29.90 in 10.0 mi ENE 9.2 mph 18.4 mph N/A   Clear
7:35 PM 97.9 °F - 47.5 °F 18% 29.91 in 10.0 mi ENE 12.7 mph - N/A   Clear
7:55 PM 95.5 °F - 47.8 °F 20% 29.91 in 10.0 mi East 15.0 mph 18.4 mph N/A   Clear
8:15 PM 95.5 °F - 49.5 °F 21% 29.92 in 10.0 mi East 12.7 mph - N/A   Clear
8:35 PM 93.2 °F - 51.1 °F 24% 29.93 in 10.0 mi East 10.4 mph - N/A   Clear
8:55 PM 93.2 °F - 52.9 °F 25% 29.94 in 10.0 mi East 12.7 mph - N/A   Clear
9:15 PM 93.2 °F 91.0 °F 54.3 °F 27% 29.94 in 10.0 mi East 9.2 mph - N/A   Clear
9:35 PM 90.5 °F 88.3 °F 53.8 °F 29% 29.96 in 10.0 mi East 9.2 mph - N/A   Clear
9:55 PM 89.8 °F 87.5 °F 54.0 °F 29% 29.97 in 10.0 mi East 10.4 mph - N/A   Clear
10:15 PM 88.0 °F - 51.6 °F 29% 29.98 in 10.0 mi East 9.2 mph - N/A   Clear
10:35 PM 88.0 °F - 51.8 °F 29% 29.98 in 10.0 mi ESE 8.1 mph - N/A   Clear
10:55 PM 88.0 °F - 52.7 °F 30% 29.99 in 10.0 mi East 5.8 mph - N/A   Clear
11:15 PM 87.3 °F - 52.7 °F 30% 29.99 in 10.0 mi East 5.8 mph - N/A   Clear
11:35 PM 85.5 °F - 52.0 °F 31% 29.99 in 10.0 mi East 4.6 mph - N/A   Clear
11:55 PM 82.2 °F - 50.4 °F 33% 30.00 in 10.0 mi East 4.6 mph - N/A   Clear